**Search for your results by entering your last name OR bib number OR search by age group to compare your stats with others
Individual Search
 
Bib:
Last Name:
All Participants Search
 
Top Ten Women
PlaceNameTimePace
1.Kelly Williamson1:16:34.375:51/M
2.Anita Quirino1:18:49.956:01/M
3.Chris Kimbrough1:18:50.206:01/M
4.Adrian Neal1:18:58.126:02/M
5.Amy Baker1:19:17.216:03/M
6.Michelle Paxton1:21:47.886:15/M
7.Abby Depperschmidt1:21:48.986:15/M
8.Jennifer Harney1:22:12.586:16/M
9.Jena Kincaid1:22:52.236:20/M
10.Lauren Haney1:23:11.256:21/M
Top Ten Men
PlaceNameTimePace
1.Erik Stanley1:06:38.355:05/M
2.Matthew Lowe1:07:29.285:09/M
3.Scott Rantall1:09:10.795:17/M
4.Colin Carroll1:10:40.495:24/M
5.David Rodriguez1:11:22.665:27/M
6.Hayden Schmitz1:12:55.845:34/M
7.Christopher Desilets1:12:59.015:34/M
8.Alex Moore1:13:26.605:36/M
9.Zach Morgan1:13:36.125:37/M
10.Mark Del Monaco1:13:40.605:37/M
Contact us for results help

Gallery of Events

Contact Us

Address:
3019 Alvin Devane Blvd.
Building 1, Suite 160
Austin, Texas 78741

Phone:
(512) 386 - 7966

Email:
info@cadencesports.com